Preview of NWS' New Version of Forecast
This preview is not operational and should not be used for support decisions.

Regional Weather Roundup (RWR)

Issued by National Weather Service (NWS)

                            
000
ASUS45 KABQ 231001
RWRNM 
NEW MEXICO REGIONAL WEATHER ROUNDUP
NATIONAL WEATHER SERVICE ALBUQUERQUE NM
300 AM MST SAT FEB 23 2019

NOTE: "FAIR" MEANS FEW OR NO CLOUDS BELOW 12,000 FEET AGL WITH NO
       SIGNIFICANT WEATHER OR OBSTRUCTIONS TO VISION.

      THIS PRODUCT IS RELEASED AS TWO VERSIONS.  ONE VERSION NEAR
      THE TOP OF THE HOUR CONTAINING PRELIMINARY DATA FROM ALBUQUERQUE
      AND OTHER STATIONS.  A FINAL VERSION WITH ADDITIONAL DATA IS 
      ISSUED ABOUT 10 MINUTES AFTER THE HOUR.
 
NMZ501-503-504-510>518-231100-
NORTHWEST PLATEAU/NORTHCENTRAL MOUNTAINS
  
CITY           SKY/WX    TMP DP  RH WIND       PRES   REMARKS
FARMINGTON     FAIR      24  20  84 W28       29.83R WCI   7          
LOS ALAMOS     FOG       23  23 100 SE6       29.66S VSB 1/4 WCI  16  
SANTA FE       CLOUDY    24  20  84 W20       29.68S WCI  10          
TAOS           LGT SNOW  22  20  92 SW18      29.65S FOG     WCI   7  
ANGEL FIRE     LGT SNOW  19  15  82 W15G23    29.57F WCI   5          

$$
NMZ402-403-502-505>509-231100-
WESTCENTRAL MOUNTAINS/SOUTHWEST MOUNTAINS
  
CITY           SKY/WX    TMP DP  RH WIND       PRES   REMARKS
GALLUP         CLOUDY    22  16  78 SW14G22   29.93R WCI   9          
GRANTS         MOCLDY    25  15  65 NW23G36   29.86R WCI  10          
SILVER CITY    CLOUDY    28  21  74 W25G31    30.01F WCI  13          

$$
NMZ407-409-411-412-231100-
SOUTHERN DESERTS
  
CITY           SKY/WX    TMP DP  RH WIND       PRES   REMARKS
DEMING         CLOUDY    31  26  82 W16       30.05S WCI  20          
LAS CRUCES     FAIR      32  27  82 W18G25    30.01F WCI  20          
ALAMOGORDO     FAIR      32  19  59 MISG      29.97S                  
T OR C         FAIR      31  15  52 W10       29.95R WCI  22          

$$
NMZ519>523-231100-
CENTRAL VALLEYS/CENTRAL HIGHLANDS
  
CITY           SKY/WX    TMP DP  RH WIND       PRES   REMARKS
ALBUQUERQUE    MOCLDY    28  22  78 W13G23    29.79R WCI  17          
DOUBLE EAGLE   MOCLDY    25  21  86 W16G22    29.76S WCI  12          
MORIARTY ARPT  FAIR      25  21  83 W17G24    29.72F WCI  12          
CLINES CORNERS MIX PCPN  21  16  81 W23G33    29.68S WCI   5          
BELEN          FAIR      29  21  73 W15G22    29.84R WCI  17          
SOCORRO        FAIR      33  15  48 W35G47    29.83F WCI  18          

$$
NMZ524>526-539-540-231100-
SOUTHCENTRAL MOUNTAINS
  
CITY           SKY/WX    TMP DP  RH WIND       PRES   REMARKS
RUIDOSO        NOT AVBL                                               

$$
NMZ527>531-231100-
NORTHEAST HIGHLANDS/NORTHEAST PLAINS
  
CITY           SKY/WX    TMP DP  RH WIND       PRES   REMARKS
LAS VEGAS      LGT SNOW  25  19  78 W18       29.55R WCI  11          
RATON          LGT SNOW  29  23  78 N17       29.53S WCI  17          
CLAYTON        CLOUDY    33  32  96 SE6       29.51F FOG     WCI  28  

$$
NMZ532>537-231100-
EASTCENTRAL PLAINS
  
CITY           SKY/WX    TMP DP  RH WIND       PRES   REMARKS
SANTA ROSA     FAIR      32  24  73 SW22G31   29.63F WCI  19          
TUCUMCARI      MOCLDY    38  33  82 SW18G26   29.58F WCI  28          
CANNON AFB     NOT AVBL                                               
CLOVIS AIRPORT LGT RAIN  34  32  92 W24G35    29.66F WCI  21          

$$
NMZ028-029-538-231100-
SOUTHEAST PLAINS
  
CITY           SKY/WX    TMP DP  RH WIND       PRES   REMARKS
ROSWELL        FAIR      38  20  48 W15       29.80R WCI  29          
ARTESIA        FAIR      39  21  48 W28G38    29.83F WCI  28          
CARLSBAD       FAIR      39  22  50 W28G37    29.91R WCI  28          
HOBBS          FAIR      37  21  52 SW32G40   29.85R WCI  25          


$$